星链-2658 (STARLINK-2658 )

导读

STARLINK-2658是美国SpaceX公司星链(Starlink)项目中的一颗低轨卫星,于2021年5月9日发射升空。星链计划旨在通过构建大规模低轨卫星星座,为全球尤其基础设施匮乏地区提供高速低延迟的宽带互联网服务,STARLINK-2658是星链组网实现全球覆盖进程中的组成部分。

基本信息
目录编号:
48473
目录名称:
STARLINK-2658
国际标识:
2021-040AX
轨道中心:
EARTH
卫星名称:
星链-2658
卫星全名:
星链-2658 (STARLINK-2658 )
卫星状态:
在轨 (已飞行1866 天)
发射日期:
2021-05-09 UTC
国别 :
美国 (US)
星等 :
--
轨道信息
数据来源 国际轨道数据 AOE轨道数据
星历时间 2026-06-18T12:25:08+0800
10小时前
查看轨道信息
2026-06-14T01:00:00+0800
4天前
查看轨道信息
半长轴 6848.873km 6848.818km
偏心率 0.0001499 0.0001175
轨道倾角 53.158° 53.157°
近地点辐角 111.320° 94.168°
升交点赤经 83.490° 104.323°
平近点角 248.796° 52.254°
近地点 469.709km 469.876km
远地点 471.763km 471.486km
周期 94.013分钟 94.012分钟
每日圈数 15.317014 15.317198
详细信息
固有亮度:
5
最大亮度:
2.5
卫星平台:
Starlink V1.0
覆盖范围:
全球
运营商:
太空探索技术公司
运营商所在国:
美国
制造商(研发单位):
太空探索技术公司
制造商所在国:
美国
使用方式:
暂无
卫星简介
星链(Starlink)计划是由太空探索技术公司(SpaceX)提出的一个巨型低轨卫星互联网星座项目,计划在2019年至2024年间在太空搭建由约1.2万颗卫星组成的“星链”网络,其中1584颗将部署在地球上空550千米处的近地轨道,并从2020年开始工作。该卫星仍在工作。
2D轨道图
3D轨道图
轨道高度分析图
轨道倾角分析图
轨道综合分析图
查看轨道综合分析图